Regional Weather Roundup
Issued by NWS

Home | Current Version | Previous Version | Text Only | Print | Product List | Glossary Off
Versions: 1 2 3 4 5 6 7 8 9 10 11 12 13 14 15 16 17 18 19 20 21 22 23 24 25 26 27 28 29 30 31 32 33 34 35 36 37 38 39 40 41 42 43 44 45 46 47 48 49 50

576
ASUS43 KIND 240959
RWRIN

WEATHER ROUNDUP FOR INDIANA
NATIONAL WEATHER SERVICE INDIANAPOLIS IN
500 AM EST WED JAN 24 2018

NOTE: "FAIR" INDICATES FEW OR NO CLOUDS BELOW 12,000 FEET WITH NO
SIGNIFICANT WEATHER AND/OR OBSTRUCTIONS TO VISIBILITY.

* - STATION DOES NOT REPORT WEATHER SUCH AS PRECIPITATION OR FOG.

+ - STATION NOT QUALITY CONTROLLED BY THE NATIONAL WEATHER SERVICE.
    USE DATA WITH CAUTION...ESPECIALLY DEWPOINT AND RELATIVE
    HUMIDITY OBSERVATIONS.

INZ001>003-010>013-019-020-241100-
NORTHWEST INDIANA

CITY           SKY/WX    TMP DP  RH WIND       PRES   REMARKS
KNOX *+        CLOUDY    30  27  86 W6        30.18F WCI  24
MICHIGAN CITY+ CLOUDY    28  25  86 W5        30.19S WCI  23
MONTICELLO +   MIX PCPN  29  27  92 NW7       30.19S WCI  22
RENSSELAER +   CLOUDY    30  27  86 W6        30.19S HAZE    WCI  24

$$

LMZ046-743>745-241100-
SOUTHERN LAKE MICHIGAN

STATION/POSITION TIME  TEMP    WIND        PRES    WAVE
                       AIR SEA DIR/SP/G            HT
                 (UTC) (F)     (DEG/KT/KT) (MB)    (FT)
BURNS HARBOR     0940   29     290/  5/  8 1022.7F
MICHIGAN CITY    0930   28     260/ 10/ 12   N/A

$$

INZ004-005-014>016-021>024-241100-
NORTH CENTRAL INDIANA

CITY           SKY/WX    TMP DP  RH WIND       PRES   REMARKS
GOSHEN         CLOUDY    30  25  81 W13       30.15R WCI  20
SOUTH BEND     CLOUDY    28  23  81 W9        30.17R WCI  19

$$

INZ006>009-017-018-025>027-241100-
NORTHEAST INDIANA

CITY           SKY/WX    TMP DP  RH WIND       PRES   REMARKS
FORT WAYNE     FLURRIES  31  27  85 W9        30.17R WCI  23
KENDALLVILLE + CLOUDY    29  24  80 NW8       30.14R WCI  22

$$

INZ028-029-035-036-043>045-051>053-241100-
WEST CENTRAL INDIANA

CITY           SKY/WX    TMP DP  RH WIND       PRES   REMARKS
CRAWFORDSVL +  CLOUDY    28  28 100 MISG      30.19S
GREENCASTLE +  CLOUDY    30  27  86 W3        30.21S
LAFAYETTE      CLOUDY    27  27 100 W7        30.20F FOG     WCI  19
TERRE HAUTE    CLOUDY    30  24  78 NW5       30.22F WCI  25

$$

INZ030>032-037>040-046>048-054>057-064-065-241100-
CENTRAL INDIANA

CITY           SKY/WX    TMP DP  RH WIND       PRES   REMARKS
GREENWOOD *+   CLOUDY    32  28  86 W6        30.20S WCI  26
INDIANAPOLIS   CLOUDY    30  27  88 W8        30.20S WCI  22
-EAGLE CREEK   CLOUDY    39  26  59 W7        30.19S WCI  34
MT COMFORT *+  CLOUDY    30  30 100 W9        30.19S WCI  22
SHELBYVILLE    CLOUDY    31  27  85 W7        30.19F WCI  24

$$

INZ033-034-041-042-049-050-058-059-241100-
EAST CENTRAL INDIANA

CITY           SKY/WX    TMP DP  RH WIND       PRES   REMARKS
MUNCIE         CLOUDY    31  26  82 W9        30.18R WCI  23
RICHMOND +     CLOUDY    30  27  86 W8        30.17S WCI  23

$$

INZ060-061-067>069-081>083-085>088-241100-
SOUTHWEST INDIANA

CITY           SKY/WX    TMP DP  RH WIND       PRES   REMARKS
EVANSVILLE     CLOUDY    34  26  72 W5        30.26S WCI  30
HUNTINGBURG +  CLOUDY    32  28  85 W5        30.25S WCI  27

$$

INZ062-063-066-070>080-084-089>092-241100-
SOUTH CENTRAL AND SOUTHEAST INDIANA

CITY           SKY/WX    TMP DP  RH WIND       PRES   REMARKS
BLOOMINGTON    CLOUDY    30  25  81 NW5       30.20F WCI  25
FRENCH LICK *+ CLOUDY    30  30 100 CALM      30.23S
MADISON *+     CLOUDY    32  30  93 W7        30.23S WCI  26
SEYMOUR +      CLOUDY    32  28  86 W8        30.23S WCI  25

$$





USA.gov is the U.S. government's official web portal to all federal, state and local government web resources and services.